Weather History for KBAC - April, 2013

Change the Weather History Date:

Sunday, April 21, 2013

  Actual Average (KJMS) Record (KJMS)
Temperature  
Mean Temperature 32 °F 45 °F  
Max Temperature 37 °F 58 °F 96 °F (1980)
Min Temperature 26 °F 32 °F 15 °F (1936)
Degree Days  
Heating Degree Days 34 20  
Month to date heating degree days 520  
Since 1 July heating degree days 8440  
Cooling Degree Days 0 0  
Month to date cooling degree days 0  
Year to date cooling degree days 0  
Moisture  
Dew Point 31 °F    
Average Humidity 95    
Maximum Humidity 100    
Minimum Humidity 81    
Precipitation  
Precipitation 0.06 in 0.04 in 0.79 in (1964)
Month to date precipitation 0.70  
Year to date precipitation 2.39  
Sea Level Pressure  
Sea Level Pressure 30.02 in    
Wind  
Wind Speed 15 mph (West)    
Max Wind Speed 29 mph    
Max Gust Speed 33 mph    
Visibility 10 miles    
Events Rain , Snow    
T = Trace of Precipitation, MM = Missing Value Source: NWS Daily Summary

Daily Weather History Graph

Daily Weather History Graph

Search for Another Location

Airport or City:

Trip Planner

Search our weather history database for the weather conditions in past years. The results will help you decide how hot, cold, wet, or windy it might be!

Date:

Astronomy

Apr. 21, 2013 Rise Set
Actual Time 6:32 AM CDT 8:29 PM CDT
Civil Twilight 6:00 AM CDT 9:01 PM CDT
Nautical Twilight 5:20 AM CDT 9:42 PM CDT
Astronomical Twilight 4:36 AM CDT 10:26 PM CDT
Moon 4:00 PM CDT (4/21) 4:12 AM CDT (4/21)
Length of Visible Light 15h 01m
Length of Day
13h 56m
Waxing Gibbous, 80% of the Moon is Illuminated
Apr 21
Waxing Gibbous
Apr 25
Full
May 2
Last Quarter
May 9
New
May 17
First Quarter

Hourly Weather History & Observations

Time (CDT) Temp. Windchill Dew Point Humidity Pressure Visibility Wind Dir Wind Speed Gust Speed Precip Events Conditions
12:15 AM 30.2 °F 20.2 °F 26.6 °F 86% 30.09 in 10.0 mi SSE 12.7 mph - N/A   Overcast
12:35 AM 30.2 °F 20.2 °F 26.6 °F 86% 30.08 in 10.0 mi SSE 12.7 mph 18.4 mph N/A   Overcast
12:55 AM 30.2 °F 20.2 °F 26.6 °F 86% 30.08 in 10.0 mi SSE 12.7 mph 19.6 mph N/A   Overcast
1:15 AM 30.2 °F 19.8 °F 28.4 °F 93% 30.07 in 10.0 mi SSE 13.8 mph 20.7 mph N/A   Overcast
1:35 AM 28.4 °F 17.0 °F 28.4 °F 100% 30.07 in 10.0 mi SSE 15.0 mph 20.7 mph N/A   Overcast
4:35 AM 32.0 °F 22.5 °F 32.0 °F 100% 30.00 in 10.0 mi SSE 12.7 mph - N/A   Overcast
4:55 AM 32.0 °F 21.2 °F 32.0 °F 100% 29.99 in 10.0 mi SSE 16.1 mph 21.9 mph N/A   Overcast
5:15 AM 32.0 °F 20.1 °F 32.0 °F 100% 29.98 in 10.0 mi SSE 19.6 mph 23.0 mph N/A   Overcast
5:35 AM 32.0 °F 21.2 °F 32.0 °F 100% 29.97 in 10.0 mi SSE 16.1 mph 21.9 mph N/A   Overcast
5:55 AM 32.0 °F 21.2 °F 32.0 °F 100% 29.96 in 10.0 mi SSE 16.1 mph 23.0 mph N/A   Overcast
6:15 AM 32.0 °F 22.1 °F 32.0 °F 100% 29.95 in 10.0 mi SSE 13.8 mph 23.0 mph N/A   Overcast
6:35 AM 32.0 °F 22.5 °F 32.0 °F 100% 29.96 in 8.0 mi SSE 12.7 mph 21.9 mph N/A   Overcast
6:55 AM 32.0 °F 20.8 °F 32.0 °F 100% 29.95 in 8.0 mi SSE 17.3 mph 23.0 mph N/A   Overcast
7:15 AM 32.0 °F 22.1 °F 32.0 °F 100% 29.95 in 7.0 mi SSE 13.8 mph 19.6 mph N/A   Overcast
7:35 AM 32.0 °F 23.0 °F 32.0 °F 100% 29.95 in 8.0 mi SSE 11.5 mph 18.4 mph N/A   Overcast
7:55 AM 32.0 °F 21.2 °F 32.0 °F 100% 29.94 in 9.0 mi SSE 16.1 mph - N/A   Overcast
8:15 AM 32.0 °F 21.6 °F 32.0 °F 100% 29.94 in 9.0 mi South 15.0 mph - N/A   Overcast
8:35 AM 32.0 °F 22.1 °F 32.0 °F 100% 29.94 in 10.0 mi South 13.8 mph 18.4 mph N/A   Mostly Cloudy
8:55 AM 32.0 °F 21.6 °F 32.0 °F 100% 29.93 in 10.0 mi South 15.0 mph - N/A   Mostly Cloudy
9:15 AM 32.0 °F 22.5 °F 32.0 °F 100% 29.93 in 10.0 mi South 12.7 mph - N/A   Overcast
9:35 AM 32.0 °F 22.5 °F 32.0 °F 100% 29.92 in 5.0 mi South 12.7 mph - N/A Rain Light Rain
9:55 AM 32.0 °F 22.1 °F 32.0 °F 100% 29.92 in 5.0 mi South 13.8 mph - N/A Rain Light Rain
10:15 AM 32.0 °F 21.6 °F 32.0 °F 100% 29.93 in 5.0 mi SSW 15.0 mph - N/A Rain Light Rain
10:35 AM 32.0 °F 22.5 °F 32.0 °F 100% 29.93 in 8.0 mi SSW 12.7 mph - N/A Rain Light Rain
10:55 AM 32.0 °F 22.5 °F 32.0 °F 100% 29.93 in 10.0 mi SSW 12.7 mph - N/A   Overcast
11:15 AM 32.0 °F 23.0 °F 32.0 °F 100% 29.93 in 10.0 mi SW 11.5 mph - N/A   Overcast
11:35 AM 32.0 °F 23.0 °F 32.0 °F 100% 29.93 in 10.0 mi SW 11.5 mph - N/A   Overcast
11:55 AM 32.0 °F 23.6 °F 32.0 °F 100% 29.93 in 10.0 mi SW 10.4 mph - N/A   Overcast
12:15 PM 33.8 °F 25.8 °F 33.8 °F 100% 29.94 in 10.0 mi WSW 10.4 mph - N/A   Mostly Cloudy
12:35 PM 33.8 °F 25.3 °F 33.8 °F 100% 29.94 in 9.0 mi WSW 11.5 mph - N/A   Mostly Cloudy
12:55 PM 33.8 °F 25.8 °F 33.8 °F 100% 29.94 in 10.0 mi West 10.4 mph - N/A   Overcast
1:15 PM 35.6 °F 28.0 °F 35.6 °F 100% 29.95 in 10.0 mi WNW 10.4 mph - N/A   Overcast
1:35 PM 35.6 °F 28.0 °F 35.6 °F 100% 29.95 in 9.0 mi WNW 10.4 mph - N/A   Overcast
1:55 PM 35.6 °F 27.5 °F 35.6 °F 100% 29.95 in 9.0 mi WNW 11.5 mph - N/A   Overcast
2:15 PM 37.4 °F 27.8 °F 35.6 °F 93% 29.95 in 10.0 mi NW 17.3 mph 20.7 mph N/A   Overcast
2:35 PM 37.4 °F 26.9 °F 35.6 °F 93% 29.96 in 10.0 mi NW 20.7 mph - N/A   Overcast
2:55 PM 35.6 °F 24.8 °F 35.6 °F 100% 29.97 in 10.0 mi NW 19.6 mph 27.6 mph N/A Snow Light Snow
3:15 PM 35.6 °F 24.2 °F 33.8 °F 93% 29.98 in 10.0 mi NW 21.9 mph 26.5 mph N/A Snow Light Snow
3:35 PM 37.4 °F 26.4 °F 32.0 °F 81% 30.00 in 10.0 mi NNW 23.0 mph 28.8 mph N/A Snow Light Snow
3:55 PM 35.6 °F 24.0 °F 32.0 °F 87% 30.00 in 10.0 mi NW 23.0 mph 33.4 mph 0.01 in Snow Light Snow
4:15 PM 37.4 °F 25.9 °F 32.0 °F 81% 30.01 in 10.0 mi NNW 25.3 mph 33.4 mph N/A Snow Light Snow
4:35 PM 35.6 °F 24.2 °F 32.0 °F 87% 30.02 in 10.0 mi NW 21.9 mph 33.4 mph 0.01 in Snow Light Snow
4:55 PM 35.6 °F 24.8 °F 32.0 °F 87% 30.03 in 10.0 mi NNW 19.6 mph 26.5 mph 0.01 in Snow Light Snow
5:15 PM 35.6 °F 24.8 °F 32.0 °F 87% 30.04 in 10.0 mi NW 19.6 mph 28.8 mph N/A Snow Light Snow
5:35 PM 35.6 °F 23.7 °F 30.2 °F 81% 30.05 in 10.0 mi NW 24.2 mph 31.1 mph N/A Snow Light Snow
5:55 PM 33.8 °F 20.3 °F 30.2 °F 87% 30.06 in 10.0 mi NW 28.8 mph 32.2 mph 0.01 in Snow Light Snow
6:15 PM 32.0 °F 18.9 °F 28.4 °F 87% 30.07 in 10.0 mi NW 24.2 mph 32.2 mph 0.01 in Snow Light Snow
6:35 PM 32.0 °F 19.5 °F 28.4 °F 87% 30.08 in 10.0 mi NW 21.9 mph 28.8 mph 0.01 in Snow Light Snow
6:55 PM 32.0 °F 19.2 °F 30.2 °F 93% 30.08 in 10.0 mi NW 23.0 mph 27.6 mph 0.02 in Snow Light Snow
7:15 PM 32.0 °F 20.1 °F 28.4 °F 87% 30.09 in 10.0 mi NW 19.6 mph 27.6 mph N/A Snow Light Snow
7:35 PM 32.0 °F 19.2 °F 28.4 °F 87% 30.09 in 10.0 mi NW 23.0 mph 33.4 mph 0.01 in Snow Light Snow
7:55 PM 32.0 °F 19.8 °F 28.4 °F 87% 30.10 in 10.0 mi NW 20.7 mph 25.3 mph 0.01 in Snow Light Snow
8:15 PM 32.0 °F 19.8 °F 28.4 °F 87% 30.11 in 10.0 mi NW 20.7 mph 28.8 mph N/A Snow Light Snow
8:35 PM 30.2 °F 18.9 °F 28.4 °F 93% 30.12 in 10.0 mi NW 16.1 mph 23.0 mph N/A Snow Light Snow
8:55 PM 30.2 °F 17.1 °F 26.6 °F 86% 30.13 in 10.0 mi NW 21.9 mph 28.8 mph N/A Snow Light Snow
9:15 PM 30.2 °F 16.2 °F 26.6 °F 86% 30.15 in 10.0 mi NW 25.3 mph 33.4 mph N/A Snow Light Snow
9:35 PM 28.4 °F 17.0 °F 26.6 °F 93% 30.15 in 10.0 mi NW 15.0 mph 27.6 mph N/A Snow Light Snow
9:55 PM 28.4 °F 18.0 °F 26.6 °F 93% 30.16 in 10.0 mi NW 12.7 mph - N/A   Partly Cloudy
10:15 PM 28.4 °F 17.5 °F 26.6 °F 93% 30.16 in 10.0 mi NW 13.8 mph 19.6 mph N/A   Clear
10:35 PM 28.4 °F 17.0 °F 26.6 °F 93% 30.17 in 10.0 mi NW 15.0 mph 20.7 mph N/A   Clear
10:55 PM 28.4 °F 18.0 °F 26.6 °F 93% 30.17 in 10.0 mi NW 12.7 mph - N/A   Clear
11:15 PM 26.6 °F 15.7 °F 26.6 °F 100% 30.17 in 10.0 mi WNW 12.7 mph - N/A   Clear
11:35 PM 26.6 °F 14.3 °F 26.6 °F 100% 30.18 in 10.0 mi NW 16.1 mph - N/A   Clear
11:55 PM 26.6 °F 14.7 °F 26.6 °F 100% 30.18 in 10.0 mi NW 15.0 mph - N/A   Clear